Content
SEND FEEDBACK

Daily
Averages
Monthly
Summary
United States of America

YIGO, GUAM


Home > North America > United States > Guam
Elevation: 530 feet     Latitude: 13 32N     Longitude: 144 53E

WEATHER
 
SELECT A DAY
Number of Records: 209,044;   Date Range: 1/1/95 - 7/29/14
 
SHARE

PRINT THIS DATA

[ ← Previous Day ]
WEATHER ALMANAC - APRIL 10, 2013
[ Next Day → ]
[ °C ]   °F
Weather ElementAverageHighLow
Temperature85.5 °F91 °F (12:54 pm)80.1 °F (11:54 pm)
Dewpoint72.1 °F73.9 °F (1:54 am)70 °F (12:54 pm)
Humidity64.6 %79 % (2:54 am)50 % (12:54 pm)
Barometer29.85 in29.92 in (9:01 am)29.78 in (3:54 pm)
Wind Speed13.1 mph18.4 mph (2:54 pm)
Wind Gust25.3 mph (1:54 pm)
Weather ElementAverage
Visibility9.9 mi
Wind DirectionENE (55.9 °)

Weather ElementTotal
Precipitation0.01 in
Cooling Degree Days20.6 (Base 65)
Growing Degree Days35.6 (Base 50)
Averaged from 29 records on April 10, 2013
WEATHER CONDITIONS BREAKOUT
WIND DIRECTION BREAKOUT
WEATHER BY HOUR - APRIL 10, 2013
[ °C ]   °F
Local TimeTemperatureDewpointHumidityBarometerVisibilityWind DirectionWind SpeedGust SpeedPrecipitationEventsConditions
1:54 AM82.0 °F73.9 °F76 %29.85 in10.0 miENE (70°)9.2 mphClear
2:54 AM81.0 °F73.9 °F79 %29.84 in10.0 miENE (60°)5.8 mphClear
3:54 AM82.0 °F73.9 °F76 %29.83 in10.0 miENE (60°)9.2 mphClear
4:54 AM82.0 °F73.9 °F76 %29.84 in10.0 miENE (70°)10.4 mphScattered Clouds
5:54 AM81.0 °F73.9 °F79 %29.86 in10.0 miNE (50°)5.8 mphScattered Clouds
6:54 AM82.0 °F73.9 °F76 %29.87 in10.0 miNE (40°)4.6 mphScattered Clouds
7:54 AM84.9 °F73.9 °F69 %29.89 in10.0 miNE (50°)13.8 mphScattered Clouds
8:54 AM87.1 °F72.0 °F61 %29.89 in10.0 miNE (50°)10.4 mph20.7 mphScattered Clouds
9:01 AM86.0 °F73.4 °F66 %29.92 in10.0 miNNE (30°)15.0 mph19.6 mphMostly Cloudy
9:18 AM87.8 °F73.4 °F62 %29.92 in10.0 miNE (50°)16.1 mphScattered Clouds
9:54 AM88.0 °F72.0 °F59 %29.89 in10.0 miNNE (30°)13.8 mphScattered Clouds
10:01 AM89.6 °F73.4 °F59 %29.92 in10.0 miNNE (30°)15.0 mphMostly Cloudy
10:54 AM89.1 °F72.0 °F57 %29.88 in10.0 miNNE (30°)15.0 mphMostly Cloudy
11:02 AM89.6 °F71.6 °F55 %29.90 in10.0 miENE (70°)15.0 mphMostly Cloudy
11:54 AM90.0 °F71.1 °F54 %29.86 in10.0 miNE (50°)13.8 mph23.0 mphMostly Cloudy
12:54 PM91.0 °F70.0 °F50 %29.83 in10.0 miENE (60°)15.0 mph21.9 mphMostly Cloudy
1:54 PM90.0 °F71.1 °F54 %29.80 in10.0 miNE (50°)16.1 mph25.3 mphMostly Cloudy
2:54 PM88.0 °F70.0 °F55 %29.79 in10.0 miNE (50°)18.4 mph24.2 mphMostly Cloudy
3:54 PM88.0 °F70.0 °F55 %29.78 in10.0 miENE (70°)17.3 mphScattered Clouds
4:29 PM87.8 °F71.6 °F58 %29.80 in10.0 miENE (70°)16.1 mphMostly Cloudy
4:44 PM87.8 °F71.6 °F58 %29.80 in10.0 miNE (50°)17.3 mphScattered Clouds
4:54 PM87.1 °F70.0 °F57 %29.78 in10.0 miENE (60°)16.1 mphPartly Cloudy
5:54 PM84.9 °F70.0 °F61 %29.80 in10.0 miENE (70°)15.0 mphClear
6:54 PM82.9 °F71.1 °F67 %29.82 in10.0 miENE (60°)16.1 mphClear
7:54 PM82.9 °F70.0 °F65 %29.85 in10.0 miENE (70°)11.5 mphPartly Cloudy
8:54 PM82.9 °F70.0 °F65 %29.86 in10.0 miENE (60°)9.2 mphClear
9:54 PM82.9 °F72.0 °F69 %29.87 in10.0 miENE (60°)11.5 mphScattered Clouds
10:54 PM81.0 °F73.9 °F79 %29.88 in7.0 miENE (70°)15.0 mph20.7 mph0.01 inRainLight Rain
11:54 PM80.1 °F72.0 °F76 %29.87 in10.0 miEast (80°)11.5 mph0.00 inPartly Cloudy
Hourly data recorded from PGUM, located miles away from Yigo, Guam







STORIES FROM OUR PARTNERS